| time (UTC) | temp F | wind direction | speed knots | gust knots | rain 1hr in | rain 24hr in | rain mn in | humidity % | barometer mb |
| 20260506124224 | 56 | 338 | 5.2 | 8.7 | 0.00 | 0.00 | 0.00 | 56 | 1015.1 |
| 20260506123224 | 57 | 0 | 4.3 | 5.2 | 0.00 | 0.00 | 0.00 | 54 | 1014.1 |
| 20260506122726 | 57 | 292 | 4.3 | 5.2 | 0.00 | 0.00 | 0.00 | 54 | 1014.1 |
| 20260506122224 | 57 | 0 | 1.7 | 5.2 | 0.00 | 0.00 | 0.00 | 54 | 1015.1 |
| 20260506121724 | 57 | 338 | 3.5 | 5.2 | 0.00 | 0.00 | 0.00 | 54 | 1015.1 |
| 20260506121226 | 57 | 315 | 2.6 | 6.1 | 0.00 | 0.00 | 0.00 | 54 | 1015.1 |
| 20260506120724 | 57 | 315 | 2.6 | 6.1 | 0.00 | 0.00 | 0.00 | 54 | 1014.1 |
| 20260506115725 | 57 | 338 | 2.6 | 5.2 | 0.00 | 0.00 | 0.00 | 55 | 1014.1 |
| 20260506114725 | 57 | 292 | 2.6 | 5.2 | 0.00 | 0.00 | 0.00 | 55 | 1014.1 |
| 20260506114226 | 57 | 0 | 3.5 | 5.2 | 0.00 | 0.00 | 0.00 | 55 | 1014.1 |
| 20260506113725 | 57 | 270 | 2.6 | 5.2 | 0.00 | 0.00 | 0.00 | 54 | 1014.1 |
| 20260506113224 | 56 | 315 | 3.5 | 6.1 | 0.00 | 0.00 | 0.00 | 55 | 1014.1 |
| 20260506112725 | 56 | 338 | 4.3 | 6.1 | 0.00 | 0.00 | 0.00 | 55 | 1014.1 |
| 20260506112225 | 56 | 315 | 4.3 | 6.1 | 0.00 | 0.00 | 0.00 | 54 | 1014.1 |
| 20260506111224 | 56 | 202 | 4.3 | 5.2 | 0.00 | 0.00 | 0.00 | 54 | 1014.1 |
| 20260506110724 | 57 | 202 | 1.7 | 7.8 | 0.00 | 0.00 | 0.00 | 54 | 1014.1 |
| 20260506110224 | 56 | 292 | 3.5 | 7.8 | 0.00 | 0.00 | 0.00 | 54 | 1014.1 |
| 20260506105724 | 57 | 338 | 3.5 | 7.8 | 0.00 | 0.00 | 0.00 | 54 | 1014.1 |
| 20260506105224 | 57 | 338 | 4.3 | 7.8 | 0.00 | 0.00 | 0.00 | 55 | 1015.1 |
| 20260506104725 | 57 | 338 | 4.3 | 7.8 | 0.00 | 0.00 | 0.00 | 55 | 1015.1 |
| 20260506104225 | 58 | 292 | 5.2 | 8.7 | 0.00 | 0.00 | 0.00 | 55 | 1015.1 |
| 20260506103726 | 57 | 338 | 3.5 | 8.7 | 0.00 | 0.00 | 0.00 | 56 | 1014.1 |
| 20260506103225 | 56 | 338 | 7.8 | 8.7 | 0.00 | 0.00 | 0.00 | 56 | 1014.1 |
| 20260506102724 | 56 | 0 | 5.2 | 7.0 | 0.00 | 0.00 | 0.00 | 57 | 1014.1 |
| 20260506101725 | 56 | 0 | 6.1 | 7.0 | 0.00 | 0.00 | 0.00 | 58 | 1014.1 |
| 20260506101226 | 56 | 270 | 3.5 | 8.7 | 0.00 | 0.00 | 0.00 | 57 | 1014.1 |
| 20260506100724 | 55 | 0 | 5.2 | 8.7 | 0.00 | 0.00 | 0.00 | 58 | 1014.1 |
| 20260506100241 | 55 | 315 | 5.2 | 8.7 | 0.00 | 0.00 | 0.00 | 57 | 1014.1 |
| 20260506095724 | 56 | 338 | 6.1 | 9.6 | 0.00 | 0.00 | 0.00 | 60 | 1014.1 |
| 20260506094725 | 55 | 338 | 5.2 | 8.7 | 0.00 | 0.00 | 0.00 | 59 | 1015.1 |
| 20260506094225 | 55 | 338 | 4.3 | 9.6 | 0.00 | 0.00 | 0.00 | 60 | 1015.1 |
| 20260506093724 | 56 | 338 | 5.2 | 11.3 | 0.00 | 0.00 | 0.00 | 60 | 1015.1 |
| 20260506093224 | 56 | 0 | 5.2 | 11.3 | 0.00 | 0.00 | 0.00 | 62 | 1015.1 |
| 20260506092724 | 55 | 0 | 5.2 | 11.3 | 0.00 | 0.00 | 0.00 | 64 | 1015.1 |
| 20260506091725 | 54 | 338 | 5.2 | 9.6 | 0.00 | 0.00 | 0.00 | 64 | 1015.1 |
| 20260506091224 | 54 | 338 | 6.1 | 8.7 | 0.00 | 0.00 | 0.00 | 64 | 1015.1 |
| 20260506090724 | 54 | 338 | 4.3 | 9.6 | 0.00 | 0.00 | 0.00 | 65 | 1014.1 |
| 20260506085224 | 54 | 338 | 6.1 | 9.6 | 0.00 | 0.00 | 0.00 | 66 | 1014.1 |
| 20260506084724 | 53 | 338 | 7.0 | 9.6 | 0.00 | 0.00 | 0.00 | 67 | 1014.1 |
| 20260506084225 | 54 | 338 | 4.3 | 9.6 | 0.00 | 0.00 | 0.00 | 68 | 1014.1 |
| 20260506083724 | 53 | 315 | 4.3 | 9.6 | 0.00 | 0.00 | 0.00 | 68 | 1015.1 |
| 20260506083225 | 53 | 0 | 7.0 | 8.7 | 0.00 | 0.00 | 0.00 | 69 | 1015.1 |
| 20260506082724 | 52 | 338 | 6.1 | 8.7 | 0.00 | 0.00 | 0.00 | 69 | 1015.1 |
| 20260506081725 | 52 | 338 | 6.1 | 13.0 | 0.00 | 0.00 | 0.00 | 69 | 1014.1 |
| 20260506081225 | 53 | 338 | 4.3 | 13.0 | 0.00 | 0.00 | 0.00 | 69 | 1014.1 |
| 20260506080724 | 52 | 338 | 7.0 | 13.0 | 0.00 | 0.00 | 0.00 | 69 | 1014.1 |
| 20260506080225 | 52 | 338 | 3.5 | 11.3 | 0.00 | 0.00 | 0.00 | 70 | 1014.1 |
| 20260506073225 | 51 | 0 | 4.3 | 7.8 | 0.00 | 0.00 | 0.00 | 73 | 1014.1 |
| 20260506072225 | 51 | 338 | 2.6 | 7.8 | 0.00 | 0.00 | 0.00 | 73 | 1014.1 |
| 20260506071725 | 50 | 338 | 3.5 | 8.7 | 0.00 | 0.00 | 0.00 | 74 | 1014.1 |
| 20260506071224 | 50 | 315 | 2.6 | 8.7 | 0.00 | 0.00 | 0.00 | 74 | 1014.1 |
| 20260506070725 | 51 | 0 | 4.3 | 8.7 | 0.00 | 0.00 | 0.00 | 74 | 1014.1 |
| 20260506070226 | 51 | 0 | 6.1 | 7.0 | 0.00 | 0.00 | 0.00 | 74 | 1014.1 |
| 20260506062224 | 48 | 338 | 7.0 | 7.8 | 0.00 | 0.00 | 0.00 | 76 | 1014.1 |
| 20260506061725 | 48 | 338 | 6.1 | 7.8 | 0.00 | 0.00 | 0.00 | 76 | 1014.1 |
| 20260506061226 | 48 | 0 | 5.2 | 7.0 | 0.00 | 0.00 | 0.00 | 77 | 1014.1 |
| 20260506060748 | 48 | 338 | 5.2 | 6.1 | 0.00 | 0.00 | 0.00 | 77 | 1014.1 |
| 20260506060224 | 47 | 292 | 3.5 | 7.0 | 0.00 | 0.00 | 0.00 | 77 | 1014.1 |
| 20260506051226 | 47 | 315 | 2.6 | 5.2 | 0.00 | 0.00 | 0.00 | 76 | 1014.1 |
| 20260506050745 | 47 | 338 | 5.2 | 7.0 | 0.00 | 0.00 | 0.00 | 76 | 1014.1 |
| 20260506050225 | 47 | 0 | 4.3 | 7.8 | 0.00 | 0.00 | 0.00 | 76 | 1014.1 |
| 20260506044724 | 48 | 338 | 2.6 | 7.8 | 0.00 | 0.00 | 0.00 | 76 | 1013.1 |
| 20260506044225 | 48 | 0 | 3.5 | 7.8 | 0.00 | 0.00 | 0.00 | 76 | 1013.1 |
| 20260506043726 | 48 | 0 | 4.3 | 7.8 | 0.00 | 0.00 | 0.00 | 76 | 1013.1 |
| 20260506043224 | 48 | 315 | 5.2 | 7.0 | 0.00 | 0.00 | 0.00 | 76 | 1013.1 |
| 20260506042726 | 48 | 338 | 3.5 | 7.0 | 0.00 | 0.00 | 0.00 | 76 | 1013.1 |
| 20260506042224 | 48 | 338 | 2.6 | 3.5 | 0.00 | 0.00 | 0.00 | 76 | 1013.1 |
| 20260506041224 | 49 | 315 | 2.6 | 4.3 | 0.00 | 0.00 | 0.00 | 76 | 1013.1 |
| 20260506040726 | 49 | 338 | 2.6 | 5.2 | 0.00 | 0.00 | 0.00 | 76 | 1013.1 |
| 20260506040225 | 49 | 292 | 1.7 | 5.2 | 0.00 | 0.00 | 0.00 | 76 | 1013.1 |
| 20260506035724 | 49 | 315 | 1.7 | 5.2 | 0.00 | 0.00 | 0.00 | 76 | 1013.1 |
| 20260506034725 | 49 | 0 | 3.5 | 9.6 | 0.00 | 0.00 | 0.00 | 76 | 1014.1 |
| 20260506034225 | 49 | 0 | 4.3 | 9.6 | 0.00 | 0.00 | 0.00 | 76 | 1014.1 |
| 20260506033725 | 50 | 338 | 3.5 | 9.6 | 0.00 | 0.00 | 0.00 | 76 | 1014.1 |
| 20260506032724 | 50 | 0 | 4.3 | 7.8 | 0.00 | 0.00 | 0.00 | 76 | 1014.1 |
| 20260506032226 | 50 | 0 | 3.5 | 7.8 | 0.00 | 0.00 | 0.00 | 76 | 1014.1 |
| 20260506031725 | 50 | 0 | 5.2 | 7.8 | 0.00 | 0.00 | 0.00 | 76 | 1014.1 |
| 20260506031224 | 50 | 338 | 4.3 | 7.8 | 0.00 | 0.00 | 0.00 | 75 | 1014.1 |
| 20260506030724 | 50 | 0 | 5.2 | 7.0 | 0.00 | 0.00 | 0.00 | 75 | 1014.1 |
| 20260506030226 | 50 | 338 | 3.5 | 7.0 | 0.00 | 0.00 | 0.00 | 75 | 1014.1 |
| 20260506025724 | 50 | 0 | 6.1 | 7.0 | 0.00 | 0.00 | 0.00 | 75 | 1014.1 |
| 20260506025224 | 50 | 338 | 3.5 | 7.0 | 0.00 | 0.00 | 0.00 | 74 | 1014.1 |
| 20260506024725 | 50 | 0 | 5.2 | 7.0 | 0.00 | 0.00 | 0.00 | 74 | 1014.1 |
| 20260506023724 | 50 | 338 | 5.2 | 7.8 | 0.00 | 0.00 | 0.00 | 74 | 1014.1 |
| 20260506023224 | 50 | 338 | 5.2 | 7.8 | 0.00 | 0.00 | 0.00 | 74 | 1014.1 |
| 20260506022725 | 50 | 0 | 3.5 | 7.8 | 0.00 | 0.00 | 0.00 | 74 | 1014.1 |
| 20260506022225 | 50 | 0 | 5.2 | 7.8 | 0.00 | 0.00 | 0.00 | 74 | 1014.1 |
| 20260506021725 | 51 | 0 | 6.1 | 7.8 | 0.00 | 0.00 | 0.00 | 74 | 1014.1 |
| 20260506021224 | 51 | 338 | 4.3 | 8.7 | 0.00 | 0.00 | 0.00 | 74 | 1014.1 |
| 20260506020724 | 51 | 0 | 4.3 | 8.7 | 0.00 | 0.00 | 0.00 | 73 | 1014.1 |
| 20260506020224 | 51 | 338 | 4.3 | 9.6 | 0.00 | 0.00 | 0.00 | 73 | 1014.1 |
| 20260506015726 | 51 | 0 | 5.2 | 9.6 | 0.00 | 0.00 | 0.00 | 73 | 1014.1 |
| 20260506015226 | 51 | 338 | 3.5 | 9.6 | 0.00 | 0.00 | 0.00 | 73 | 1014.1 |
| 20260506014724 | 51 | 0 | 3.5 | 6.1 | 0.00 | 0.00 | 0.00 | 73 | 1014.1 |
| 20260506014226 | 51 | 292 | 4.3 | 6.1 | 0.00 | 0.00 | 0.00 | 73 | 1014.1 |
| 20260506013725 | 51 | 0 | 4.3 | 6.1 | 0.00 | 0.00 | 0.00 | 72 | 1014.1 |
| 20260506013224 | 51 | 0 | 4.3 | 7.8 | 0.00 | 0.00 | 0.00 | 72 | 1014.1 |
| 20260506012725 | 51 | 0 | 4.3 | 8.7 | 0.00 | 0.00 | 0.00 | 72 | 1014.1 |
| 20260506011724 | 51 | 0 | 5.2 | 7.8 | 0.00 | 0.00 | 0.00 | 72 | 1014.1 |
| 20260506011224 | 52 | 338 | 5.2 | 7.8 | 0.00 | 0.00 | 0.00 | 71 | 1014.1 |
| 20260506010726 | 52 | 0 | 4.3 | 7.8 | 0.00 | 0.00 | 0.00 | 71 | 1014.1 |
| 20260506010224 | 52 | 338 | 1.7 | 5.2 | 0.00 | 0.00 | 0.00 | 70 | 1014.1 |
| 20260506005726 | 52 | 0 | 3.5 | 5.2 | 0.00 | 0.00 | 0.00 | 70 | 1014.1 |
| 20260506005224 | 52 | 338 | 3.5 | 7.0 | 0.00 | 0.00 | 0.00 | 70 | 1015.1 |
| 20260506004724 | 52 | 0 | 4.3 | 8.7 | 0.00 | 0.00 | 0.00 | 70 | 1015.1 |
| 20260506004224 | 52 | 0 | 4.3 | 8.7 | 0.00 | 0.00 | 0.00 | 70 | 1015.1 |
| 20260506003724 | 52 | 338 | 5.2 | 11.3 | 0.00 | 0.00 | 0.00 | 70 | 1014.1 |
| 20260506003224 | 52 | 0 | 4.3 | 11.3 | 0.00 | 0.00 | 0.00 | 69 | 1014.1 |
| 20260506002726 | 52 | 338 | 4.3 | 11.3 | 0.00 | 0.00 | 0.00 | 70 | 1014.1 |
| 20260506002224 | 52 | 0 | 5.2 | 7.8 | 0.00 | 0.00 | 0.00 | 70 | 1015.1 |
| 20260506001224 | 53 | 0 | 4.3 | 8.7 | 0.00 | 0.00 | 0.00 | 70 | 1015.1 |
| 20260506000724 | 53 | 338 | 2.6 | 8.7 | 0.00 | 0.00 | 0.00 | 70 | 1015.1 |
| 20260506000232 | 53 | 338 | 3.5 | 7.8 | 0.00 | 0.00 | 0.00 | 70 | 1015.1 |
| 20260505235724 | 53 | 0 | 7.0 | 7.8 | 0.00 | 0.00 | 0.00 | 70 | 1015.1 |
| 20260505234724 | 53 | 0 | 3.5 | 7.0 | 0.00 | 0.00 | 0.00 | 70 | 1015.1 |
| 20260505234225 | 53 | 338 | 3.5 | 11.3 | 0.00 | 0.00 | 0.00 | 70 | 1015.1 |
| 20260505233724 | 53 | 338 | 3.5 | 11.3 | 0.00 | 0.00 | 0.00 | 70 | 1014.1 |
| 20260505233229 | 53 | 0 | 3.5 | 11.3 | 0.00 | 0.00 | 0.00 | 70 | 1014.1 |
| 20260505232734 | 53 | 0 | 2.6 | 7.0 | 0.00 | 0.00 | 0.00 | 70 | 1014.1 |
| 20260505232259 | 53 | 0 | 3.5 | 7.0 | 0.00 | 0.00 | 0.00 | 69 | 1015.1 |
| 20260505230725 | 53 | 338 | 3.5 | 7.8 | 0.00 | 0.00 | 0.00 | 69 | 1015.1 |
| 20260505225224 | 54 | 338 | 3.5 | 5.2 | 0.00 | 0.00 | 0.00 | 68 | 1015.1 |
| 20260505224724 | 54 | 0 | 3.5 | 5.2 | 0.00 | 0.00 | 0.00 | 68 | 1015.1 |
| 20260505223724 | 54 | 0 | 3.5 | 3.5 | 0.00 | 0.00 | 0.00 | 67 | 1015.1 |
| 20260505223224 | 54 | 0 | 2.6 | 3.5 | 0.00 | 0.00 | 0.00 | 67 | 1015.1 |
| 20260505222724 | 54 | 0 | 1.7 | 3.5 | 0.00 | 0.00 | 0.00 | 67 | 1015.1 |
| 20260505222224 | 54 | 0 | 3.5 | 3.5 | 0.00 | 0.00 | 0.00 | 67 | 1015.1 |
| 20260505221725 | 54 | 135 | 0.9 | 3.5 | 0.00 | 0.00 | 0.00 | 67 | 1015.1 |
| 20260505221225 | 54 | 0 | 0.9 | 3.5 | 0.00 | 0.00 | 0.00 | 67 | 1015.1 |
| 20260505220725 | 54 | 0 | 0.0 | 3.5 | 0.00 | 0.00 | 0.00 | 67 | 1014.1 |
| 20260505220225 | 54 | 0 | 0.9 | 3.5 | 0.00 | 0.00 | 0.00 | 66 | 1014.1 |
| 20260505215726 | 54 | 0 | 1.7 | 5.2 | 0.00 | 0.00 | 0.00 | 66 | 1014.1 |
| 20260505215225 | 54 | 0 | 1.7 | 5.2 | 0.00 | 0.00 | 0.00 | 66 | 1015.1 |
| 20260505214225 | 54 | 0 | 3.5 | 5.2 | 0.00 | 0.00 | 0.00 | 66 | 1015.1 |
| 20260505213724 | 54 | 338 | 1.7 | 5.2 | 0.00 | 0.00 | 0.00 | 66 | 1015.1 |
| 20260505213225 | 54 | 0 | 2.6 | 5.2 | 0.00 | 0.00 | 0.00 | 65 | 1015.1 |
| 20260505212724 | 54 | 0 | 3.5 | 5.2 | 0.00 | 0.00 | 0.00 | 65 | 1015.1 |
| 20260505212226 | 54 | 338 | 2.6 | 5.2 | 0.00 | 0.00 | 0.00 | 65 | 1015.1 |
| 20260505211226 | 54 | 0 | 2.6 | 5.2 | 0.00 | 0.00 | 0.00 | 65 | 1015.1 |
| 20260505210725 | 54 | 292 | 2.6 | 5.2 | 0.00 | 0.00 | 0.00 | 65 | 1015.1 |
| 20260505210225 | 54 | 0 | 2.6 | 5.2 | 0.00 | 0.00 | 0.00 | 64 | 1015.1 |
| 20260505205726 | 54 | 0 | 1.7 | 5.2 | 0.00 | 0.00 | 0.00 | 64 | 1015.1 |
| 20260505205225 | 54 | 338 | 3.5 | 5.2 | 0.00 | 0.00 | 0.00 | 64 | 1015.1 |
| 20260505204725 | 54 | 338 | 2.6 | 5.2 | 0.00 | 0.00 | 0.00 | 64 | 1015.1 |
| 20260505204224 | 54 | 0 | 1.7 | 3.5 | 0.00 | 0.00 | 0.00 | 64 | 1015.1 |
| 20260505203724 | 54 | 0 | 2.6 | 4.3 | 0.00 | 0.00 | 0.00 | 63 | 1015.1 |
| 20260505202225 | 55 | 338 | 3.5 | 5.2 | 0.00 | 0.00 | 0.00 | 63 | 1014.1 |
| 20260505201725 | 55 | 0 | 1.7 | 5.2 | 0.00 | 0.00 | 0.00 | 63 | 1014.1 |
| 20260505201224 | 55 | 338 | 3.5 | 5.2 | 0.00 | 0.00 | 0.00 | 61 | 1014.1 |
| 20260505200225 | 55 | 0 | 1.7 | 7.0 | 0.00 | 0.00 | 0.00 | 62 | 1014.1 |
| 20260505195224 | 55 | 0 | 4.3 | 5.2 | 0.00 | 0.00 | 0.00 | 60 | 1014.1 |
| 20260505194725 | 55 | 292 | 0.9 | 4.3 | 0.00 | 0.00 | 0.00 | 60 | 1014.1 |
| 20260505194224 | 55 | 315 | 1.7 | 4.3 | 0.00 | 0.00 | 0.00 | 59 | 1014.1 |
| 20260505193725 | 55 | 0 | 0.9 | 5.2 | 0.00 | 0.00 | 0.00 | 58 | 1014.1 |
| 20260505193225 | 56 | 0 | 3.5 | 5.2 | 0.00 | 0.00 | 0.00 | 57 | 1014.1 |
| 20260505191725 | 56 | 248 | 1.7 | 4.3 | 0.00 | 0.00 | 0.00 | 56 | 1014.1 |
| 20260505191224 | 56 | 338 | 2.6 | 4.3 | 0.00 | 0.00 | 0.00 | 56 | 1014.1 |
| 20260505190724 | 56 | 135 | 3.5 | 3.5 | 0.00 | 0.00 | 0.00 | 56 | 1014.1 |
| 20260505190225 | 57 | 248 | 0.0 | 3.5 | 0.00 | 0.00 | 0.00 | 55 | 1014.1 |
| 20260505185724 | 57 | 292 | 0.9 | 3.5 | 0.00 | 0.00 | 0.00 | 55 | 1014.1 |
| 20260505185224 | 57 | 158 | 1.7 | 4.3 | 0.00 | 0.00 | 0.00 | 55 | 1014.1 |
| 20260505184725 | 57 | 315 | 1.7 | 5.2 | 0.00 | 0.00 | 0.00 | 54 | 1014.1 |
| 20260505184225 | 57 | 135 | 2.6 | 5.2 | 0.00 | 0.00 | 0.00 | 54 | 1014.1 |
| 20260505183725 | 58 | 292 | 1.7 | 5.2 | 0.00 | 0.00 | 0.00 | 53 | 1014.1 |
| 20260505183225 | 58 | 0 | 3.5 | 5.2 | 0.00 | 0.00 | 0.00 | 53 | 1014.1 |
| 20260505182725 | 58 | 0 | 3.5 | 4.3 | 0.00 | 0.00 | 0.00 | 53 | 1014.1 |
| 20260505181724 | 58 | 338 | 1.7 | 5.2 | 0.00 | 0.00 | 0.00 | 53 | 1014.1 |
| 20260505180724 | 59 | 315 | 2.6 | 5.2 | 0.00 | 0.00 | 0.00 | 52 | 1014.1 |
| 20260505175724 | 59 | 0 | 1.7 | 5.2 | 0.00 | 0.00 | 0.00 | 52 | 1014.1 |
| 20260505174726 | 60 | 338 | 2.6 | 4.3 | 0.00 | 0.00 | 0.00 | 51 | 1014.1 |
| 20260505174224 | 60 | 0 | 2.6 | 5.2 | 0.00 | 0.00 | 0.00 | 51 | 1014.1 |
| 20260505173225 | 60 | 292 | 2.6 | 5.2 | 0.00 | 0.00 | 0.00 | 51 | 1014.1 |
| 20260505172725 | 60 | 0 | 2.6 | 4.3 | 0.00 | 0.00 | 0.00 | 51 | 1014.1 |
| 20260505171724 | 61 | 0 | 2.6 | 4.3 | 0.00 | 0.00 | 0.00 | 50 | 1014.1 |
| 20260505170725 | 62 | 0 | 1.7 | 6.1 | 0.00 | 0.00 | 0.00 | 49 | 1014.1 |
| 20260505170225 | 62 | 0 | 1.7 | 6.1 | 0.00 | 0.00 | 0.00 | 49 | 1014.1 |
| 20260505165725 | 62 | 315 | 3.5 | 5.2 | 0.00 | 0.00 | 0.00 | 49 | 1014.1 |
| 20260505165224 | 63 | 338 | 3.5 | 5.2 | 0.00 | 0.00 | 0.00 | 48 | 1014.1 |
| 20260505164725 | 63 | 338 | 3.5 | 6.1 | 0.00 | 0.00 | 0.00 | 48 | 1014.1 |
| 20260505164225 | 64 | 315 | 2.6 | 6.1 | 0.00 | 0.00 | 0.00 | 48 | 1014.1 |
| 20260505163724 | 64 | 338 | 1.7 | 6.1 | 0.00 | 0.00 | 0.00 | 48 | 1014.1 |
| 20260505163224 | 64 | 0 | 2.6 | 7.8 | 0.00 | 0.00 | 0.00 | 48 | 1014.1 |
| 20260505162724 | 64 | 0 | 4.3 | 7.8 | 0.00 | 0.00 | 0.00 | 48 | 1014.1 |
| 20260505162225 | 64 | 0 | 3.5 | 7.8 | 0.00 | 0.00 | 0.00 | 48 | 1014.1 |
| 20260505161725 | 64 | 0 | 2.6 | 6.1 | 0.00 | 0.00 | 0.00 | 48 | 1014.1 |
| 20260505161224 | 64 | 0 | 3.5 | 6.1 | 0.00 | 0.00 | 0.00 | 48 | 1014.1 |
| 20260505160726 | 64 | 135 | 4.3 | 5.2 | 0.00 | 0.00 | 0.00 | 48 | 1014.1 |
| 20260505153226 | 66 | 338 | 3.5 | 5.2 | 0.00 | 0.00 | 0.00 | 47 | 1014.1 |
| 20260505152224 | 66 | 135 | 2.6 | 6.1 | 0.00 | 0.00 | 0.00 | 47 | 1014.1 |
| 20260505151726 | 66 | 202 | 2.6 | 7.8 | 0.00 | 0.00 | 0.00 | 46 | 1014.1 |
| 20260505151224 | 66 | 135 | 3.5 | 7.8 | 0.00 | 0.00 | 0.00 | 46 | 1014.1 |
| 20260505150725 | 65 | 0 | 3.5 | 7.8 | 0.00 | 0.00 | 0.00 | 46 | 1014.1 |
| 20260505150224 | 66 | 315 | 2.6 | 7.8 | 0.00 | 0.00 | 0.00 | 47 | 1014.1 |
| 20260505140224 | 66 | 0 | 3.5 | 6.1 | 0.00 | 0.00 | 0.00 | 49 | 1014.1 |
| 20260505124725 | 64 | 135 | 1.7 | 7.0 | 0.00 | 0.00 | 0.00 | 55 | 1014.1 |